OPS 4682 DEB, 38373

Orbit data source: Space-Track

OPS 4682 DEB, 38373 is space debris in LEO originally from a launch on Sat, 03 Apr 1965 UTC launched from the Air Force Western Test Range (AFWTR). Debris objects in space refer to the collection of defunct objects orbiting the Earth. Examples of debris include non-operational satellites, rocket bodies, and fragments generated from explosions, collisions, or faulty payload assembly.

Loading next visibility...
Identifier
38373, 1965-027CA
Orbit
LEO
Country
Flag of USUS
Related business
Manufacturer
Unknown
Mission
Spacecraft
Bus & Motor
Unknown
Mass
Unknown
Launch date (UTC)
1965-04-03 (61 years ago)
Launch vehicle
Unknown
Launch site
Air Force Western Test Range (AFWTR)
Object type
Payload
Rocket body
Debris
Shape & HBR
Unknown shape, 0.1 m
Radar Cross Section
Small (<0.1 m²)

Expand to show TLE details & history
Last TLE update: 4 days ago

TLE from 4 days ago
0 OPS 4682 DEB
1 38373U 65027CA  25290.97051730  .00000039  00000-0  10292-3 0  9993
2 38373  90.2698  24.4837 0033342 109.3755 251.0976 13.00927323585540
Epoch: 2025-10-17T23:17Z
TLE epoch observation values (Epoch: 2025-10-17T23:17:32.694Z)
Latitude
-0.00012°
Longitude
8.38923°
Altitude
1,269.667 km
Speed
7.217 km/s
True Right ascension
01h 37m 56s
True Declination
0° 00' 00"
Sunlit
Object was in full shadow at epoch
Visualization orbit readout
Latitude
Unknown
Longitude
Unknown
Altitude
Unknown
Speed
Unknown
Apparent Right ascension
Unknown
Apparent Declination
Unknown
Sunlit
N/A
Visualization observer readout
Local Sidereal Time
12:24:25
Azimuth
Unknown
Elevation
Unknown
Doppler factor
Unknown
Orbital elements
Apogee altitude
1,281.033 km
Perigee altitude
1,230.129 km
Semi-major axis
7,633.718 km
Eccentricity
0.00333
Inclination
90.2698°
RAAN
24.4837°
Arg. of periapsis
109.3755°
True anomaly
250.73662°
Mean anomaly
251.0976°
Eccentric anomaly
250.91706°
Mean motion
3.25416 °/min
Orbital period
110.63 mins
BSTAR
0.00010292
Loading maneuver chart data...
Computing Atmospheric mass density...
Loading historical data...
Loading historical data...
Loading historical data...
Loading historical data...
Loading historical data...
Loading historical data...
Loading historical data...

Documentation

Showing up to 5 results
|